This is the latest recevied weather packets stored in our database for station/object DL9TK-10. If no packets are shown the sender has not sent any weather packets the latest 10 day(s).
| Time | Temp. | Humidity | Pressure | Rain* | Wind** | Luminosity | Snow |
|---|---|---|---|---|---|---|---|
| 1778399195 | 18.89° C | 40% | 1014.9 hPa | - | - | - | - |
| 1778398295 | 18.33° C | 41% | 1015.1 hPa | - | - | - | - |
| 1778397395 | 17.78° C | 42% | 1015.1 hPa | - | - | - | - |
| 1778396495 | 17.22° C | 43% | 1015.2 hPa | - | - | - | - |
| 1778395595 | 16.67° C | 43% | 1015.1 hPa | - | - | - | - |
| 1778394695 | 16.67° C | 43% | 1015 hPa | - | - | - | - |
| 1778393795 | 16.11° C | 43% | 1015.3 hPa | - | - | - | - |
| 1778392895 | 15.56° C | 43% | 1015.2 hPa | - | - | - | - |
| 1778391994 | 15° C | 46% | 1015 hPa | - | - | - | - |
| 1778391094 | 15° C | 46% | 1015 hPa | - | - | - | - |
| 1778390194 | 14.44° C | 47% | 1015.3 hPa | - | - | - | - |
| 1778389294 | 14.44° C | 48% | 1015.4 hPa | - | - | - | - |
| 1778388394 | 14.44° C | 48% | 1015.5 hPa | - | - | - | - |
| 1778387494 | 13.89° C | 48% | 1015.5 hPa | - | - | - | - |
| 1778386594 | 13.89° C | 47% | 1015.6 hPa | - | - | - | - |
| 1778385694 | 14.44° C | 47% | 1015.7 hPa | - | - | - | - |
| 1778384794 | 13.89° C | 48% | 1016 hPa | - | - | - | - |
| 1778383894 | 14.44° C | 47% | 1016.1 hPa | - | - | - | - |
| 1778382994 | 14.44° C | 48% | 1016.2 hPa | - | - | - | - |
| 1778382094 | 14.44° C | 46% | 1016.2 hPa | - | - | - | - |
| 1778381194 | 14.44° C | 47% | 1016.4 hPa | - | - | - | - |
| 1778380294 | 14.44° C | 46% | 1016.6 hPa | - | - | - | - |
| 1778379393 | 14.44° C | 46% | 1016.7 hPa | - | - | - | - |
| 1778378493 | 15° C | 45% | 1016.8 hPa | - | - | - | - |
| 1778377593 | 15° C | 45% | 1016.8 hPa | - | - | - | - |
* Rain since midnight (hover to see other rain measurements)
** Current wind speed in m/s (hover to see current wind gust speed)